Date,Time,Wetness (Wet Dry or Ice),Wind Speed (m/s),Temperature (C),Humidity (%),Pressure (mb),Radiation (W/m^2)
2020-02-18,02:05:00,DRY,2.90,8.75,20.5,780.50,0.9
2020-02-18,02:10:00,DRY,2.43,8.73,19.7,780.00,0.7
2020-02-18,02:15:00,DRY,2.65,8.45,21.0,780.00,0.7
2020-02-18,02:20:00,DRY,3.10,8.30,22.7,780.00,1.2
2020-02-18,02:25:00,DRY,3.35,8.40,22.5,780.00,1.2
2020-02-18,02:30:00,DRY,2.93,8.30,23.0,780.00,1.2
2020-02-18,02:35:00,DRY,2.70,8.25,23.0,780.00,0.9
2020-02-18,02:40:00,DRY,3.57,8.27,23.0,780.00,0.9
2020-02-18,02:45:00,DRY,3.30,8.00,23.0,780.00,0.6
2020-02-18,02:50:00,DRY,3.27,8.07,22.7,780.00,1.2
2020-02-18,02:55:00,DRY,2.55,8.35,21.5,780.00,1.5
2020-02-18,03:00:00,DRY,2.57,8.17,21.7,780.00,1.7
2020-02-18,03:05:00,DRY,2.30,8.35,21.0,780.00,1.4
2020-02-18,03:10:00,DRY,1.20,8.30,22.0,780.00,1.3
2020-02-18,03:15:00,DRY,1.15,7.95,23.0,780.00,1.4
2020-02-18,03:20:00,DRY,1.50,8.00,22.3,780.00,1.3
2020-02-18,03:25:00,DRY,0.95,8.05,23.5,780.00,0.8
2020-02-18,03:30:00,DRY,0.43,7.73,24.0,780.00,1.4
2020-02-18,03:35:00,DRY,0.75,7.55,24.0,780.00,1.8
2020-02-18,03:40:00,DRY,1.03,7.50,25.0,780.00,1.2
2020-02-18,03:45:00,DRY,2.00,7.25,25.0,780.00,1.2
2020-02-18,03:50:00,DRY,1.57,7.60,22.7,780.00,2.1
2020-02-18,03:55:00,DRY,1.35,7.60,23.0,780.00,1.3
2020-02-18,04:00:00,DRY,1.37,7.47,23.3,780.00,1.0
2020-02-18,04:05:00,DRY,1.55,7.65,23.0,780.00,1.0
2020-02-18,04:10:00,DRY,0.97,7.60,21.7,780.00,1.2
2020-02-18,04:15:00,DRY,0.50,7.70,21.0,780.00,1.2
2020-02-18,04:20:00,DRY,1.00,7.73,21.3,780.00,1.3
2020-02-18,04:25:00,DRY,1.30,7.50,22.0,780.00,0.9
2020-02-18,04:30:00,DRY,1.20,7.53,20.3,780.00,0.8
2020-02-18,04:35:00,DRY,1.55,7.90,20.0,780.00,0.1
2020-02-18,04:40:00,DRY,1.43,7.77,20.0,780.00,1.0
2020-02-18,04:45:00,DRY,1.25,7.60,20.0,780.00,1.1
2020-02-18,04:50:00,DRY,1.80,7.53,20.0,780.00,0.9
2020-02-18,04:55:00,DRY,1.50,7.75,19.5,780.00,0.7
2020-02-18,05:00:00,DRY,1.70,7.73,19.3,780.00,1.2
2020-02-18,05:05:00,DRY,2.00,7.70,19.0,780.00,1.0
2020-02-18,05:10:00,DRY,2.87,7.80,19.0,780.00,1.4
2020-02-18,05:15:00,DRY,2.45,8.05,18.0,780.00,1.3
2020-02-18,05:20:00,DRY,2.63,7.87,18.3,780.00,1.5
2020-02-18,05:25:00,DRY,2.95,8.00,17.0,780.00,1.2
2020-02-18,05:30:00,DRY,3.00,8.10,17.0,780.00,1.8
2020-02-18,05:35:00,DRY,2.35,8.15,17.0,780.00,1.9
2020-02-18,05:40:00,DRY,2.63,8.20,17.0,780.00,1.1
2020-02-18,05:45:00,DRY,3.00,8.25,15.5,780.00,1.2
2020-02-18,05:50:00,DRY,3.07,8.27,14.3,780.00,1.0
2020-02-18,05:55:00,DRY,4.10,8.50,14.0,780.00,0.8
2020-02-18,06:00:00,DRY,3.87,8.40,14.0,780.00,1.5
2020-02-18,06:05:00,DRY,3.90,8.45,13.0,780.00,1.0
2020-02-18,06:10:00,DRY,3.50,8.50,13.0,780.00,1.3
2020-02-18,06:15:00,DRY,3.80,8.50,13.0,780.00,1.2
2020-02-18,06:20:00,DRY,3.03,8.43,13.0,780.00,0.9
2020-02-18,06:25:00,DRY,3.35,8.25,13.0,780.00,0.7
2020-02-18,06:30:00,DRY,3.63,8.47,11.0,780.00,1.4
2020-02-18,06:35:00,DRY,3.90,8.60,7.0,780.00,1.0
2020-02-18,06:40:00,DRY,3.90,8.73,6.0,780.00,1.2
2020-02-18,06:45:00,DRY,3.45,8.65,5.0,780.00,1.4
2020-02-18,06:50:00,DRY,3.20,8.70,5.3,780.00,1.1
2020-02-18,06:55:00,DRY,3.45,8.65,5.5,780.00,0.6
2020-02-18,07:00:00,DRY,3.73,9.17,5.0,780.00,1.6
2020-02-18,07:05:00,DRY,2.95,9.30,5.0,780.00,1.0
2020-02-18,07:10:00,DRY,3.47,9.27,5.0,780.00,0.7
2020-02-18,07:15:00,DRY,3.85,9.15,6.0,780.00,1.5
2020-02-18,07:20:00,DRY,3.27,9.20,6.0,780.00,1.0
2020-02-18,07:25:00,DRY,4.10,9.15,6.0,780.00,1.4
2020-02-18,07:30:00,DRY,3.20,9.13,6.0,780.00,1.8
2020-02-18,07:35:00,DRY,5.70,9.25,6.0,780.00,2.1
2020-02-18,07:40:00,DRY,5.13,9.33,5.7,780.00,3.0
2020-02-18,07:45:00,DRY,5.30,9.35,5.0,780.00,4.1
2020-02-18,07:50:00,DRY,5.00,9.70,5.0,780.00,6.3
2020-02-18,07:55:00,DRY,5.30,9.65,5.0,780.00,9.4
2020-02-18,08:00:00,DRY,5.27,9.73,5.0,780.00,11.9
2020-02-18,08:05:00,DRY,6.00,9.55,5.0,780.00,15.2
2020-02-18,08:10:00,DRY,5.57,9.50,5.0,780.00,18.9
2020-02-18,08:15:00,DRY,5.60,9.45,5.0,780.00,21.9
2020-02-18,08:20:00,DRY,6.00,9.73,5.0,780.00,24.4
2020-02-18,08:25:00,DRY,4.95,9.85,5.0,780.00,39.8
2020-02-18,08:30:00,DRY,4.33,10.00,5.0,780.00,139.3
2020-02-18,08:35:00,DRY,5.40,10.20,5.0,780.00,186.7
2020-02-18,08:40:00,DRY,3.83,10.47,5.0,780.00,210.3
2020-02-18,08:45:00,DRY,3.95,10.55,5.0,780.00,219.5
2020-02-18,08:50:00,DRY,4.90,10.60,5.0,780.00,199.9
2020-02-18,08:55:00,DRY,5.20,10.45,5.0,780.00,189.6
2020-02-18,09:00:00,DRY,3.95,10.45,5.5,780.00,176.4
2020-02-18,09:05:00,DRY,4.70,10.45,5.5,780.00,256.8
2020-02-18,09:10:00,DRY,4.00,10.67,6.0,780.00,300.2
2020-02-18,09:15:00,DRY,5.00,10.80,6.5,780.50,343.6
2020-02-18,09:20:00,DRY,4.03,10.87,6.7,781.00,376.8
2020-02-18,09:25:00,DRY,7.35,10.80,6.5,780.00,402.8
2020-02-18,09:30:00,DRY,4.07,11.00,7.3,781.00,424.6
2020-02-18,09:35:00,DRY,5.20,10.90,7.0,780.50,444.9
2020-02-18,09:40:00,DRY,4.03,11.00,7.3,781.00,464.4
2020-02-18,09:45:00,DRY,5.55,11.05,8.0,780.50,482.2
2020-02-18,09:50:00,DRY,4.20,11.03,7.3,781.00,502.2
2020-02-18,09:55:00,DRY,3.75,11.20,8.5,781.00,520.4
2020-02-18,10:00:00,DRY,4.73,11.23,8.0,781.00,539.0
2020-02-18,10:05:00,DRY,6.15,11.20,8.5,781.00,554.8
2020-02-18,10:10:00,DRY,4.07,11.43,8.7,781.00,573.6
2020-02-18,10:15:00,DRY,4.70,11.35,8.5,781.00,592.2
2020-02-18,10:20:00,DRY,3.63,11.33,10.3,781.00,610.3
2020-02-18,10:25:00,DRY,3.05,11.35,9.0,781.00,627.3
2020-02-18,10:30:00,DRY,3.20,11.57,9.0,781.00,643.0
2020-02-18,10:35:00,DRY,3.25,11.55,8.5,781.00,660.1
2020-02-18,10:40:00,DRY,4.03,11.67,9.0,781.00,675.8
2020-02-18,10:45:00,DRY,3.65,11.70,9.5,781.00,691.2
2020-02-18,10:50:00,DRY,3.90,11.73,9.3,781.00,706.3
2020-02-18,10:55:00,DRY,4.20,11.90,9.0,781.00,721.5
2020-02-18,11:00:00,DRY,4.90,11.77,10.3,781.00,734.9
2020-02-18,11:05:00,DRY,3.20,11.80,11.5,781.00,748.0
2020-02-18,11:10:00,DRY,2.90,11.80,10.0,781.00,761.4
2020-02-18,11:15:00,DRY,2.75,11.80,10.5,781.00,776.0
2020-02-18,11:20:00,DRY,3.63,12.03,13.0,781.00,785.3
2020-02-18,11:25:00,DRY,4.25,12.15,13.5,781.00,797.8
2020-02-18,11:30:00,DRY,2.80,12.03,11.7,781.00,809.1
2020-02-18,11:35:00,DRY,3.15,12.10,10.5,781.00,819.6
2020-02-18,11:40:00,DRY,2.87,12.30,11.0,781.00,830.5
2020-02-18,11:45:00,DRY,2.10,12.30,12.5,781.00,838.5
2020-02-18,11:50:00,DRY,3.87,12.40,11.7,781.00,850.1
2020-02-18,11:55:00,DRY,3.20,12.35,12.5,781.00,857.5
2020-02-18,12:00:00,DRY,2.50,12.30,12.3,781.00,866.3
2020-02-18,12:05:00,DRY,3.15,12.80,12.0,781.00,874.3
2020-02-18,12:10:00,DRY,3.47,12.60,12.3,781.00,882.6
2020-02-18,12:15:00,DRY,2.75,13.00,12.5,781.00,889.2
2020-02-18,12:20:00,DRY,3.47,12.53,14.3,781.00,896.2
2020-02-18,12:25:00,DRY,2.85,12.65,13.5,781.00,900.6
2020-02-18,12:30:00,DRY,3.97,12.30,14.0,781.00,907.4
2020-02-18,12:35:00,DRY,3.40,12.25,14.0,780.50,911.8
2020-02-18,12:40:00,DRY,2.47,12.70,16.7,780.33,916.5
2020-02-18,12:45:00,DRY,2.05,13.10,14.5,780.00,920.9
2020-02-18,12:50:00,DRY,1.97,12.60,21.3,780.00,923.3
2020-02-18,12:55:00,DRY,3.10,12.70,20.5,780.00,928.0
2020-02-18,13:00:00,DRY,2.03,12.57,21.0,780.00,929.6
2020-02-18,13:05:00,DRY,1.75,13.00,22.5,780.00,930.2
2020-02-18,13:10:00,DRY,2.93,13.03,28.3,780.00,932.2
2020-02-18,13:15:00,DRY,1.50,12.35,22.5,780.00,935.8
2020-02-18,13:20:00,DRY,2.73,12.47,24.3,780.00,932.6
2020-02-18,13:25:00,DRY,2.15,13.10,29.5,780.00,932.4
2020-02-18,13:30:00,DRY,3.30,12.60,32.0,780.00,930.9
2020-02-18,13:35:00,DRY,2.60,13.00,23.0,780.00,932.6
2020-02-18,13:40:00,DRY,3.47,12.87,22.0,780.00,930.0
2020-02-18,13:45:00,DRY,3.20,12.90,23.5,780.00,925.5
2020-02-18,13:50:00,DRY,2.27,12.90,22.7,780.00,924.6
2020-02-18,13:55:00,DRY,2.95,12.40,24.5,780.00,922.2
2020-02-18,14:00:00,DRY,1.57,12.30,25.0,780.00,916.9
2020-02-18,14:05:00,DRY,3.20,12.70,23.0,780.00,914.5
2020-02-18,14:10:00,DRY,1.80,12.63,24.0,780.00,909.1
2020-02-18,14:15:00,DRY,3.15,12.60,27.5,780.00,903.6
2020-02-18,14:20:00,DRY,1.90,12.30,20.3,780.00,899.1
2020-02-18,14:25:00,DRY,1.10,12.90,19.0,780.00,891.7
2020-02-18,14:30:00,DRY,2.20,12.87,18.7,780.00,884.1
2020-02-18,14:35:00,DRY,2.45,12.55,20.5,780.00,878.9
2020-02-18,14:40:00,DRY,3.03,12.77,19.0,780.00,870.0
2020-02-18,14:45:00,DRY,3.75,12.55,27.0,780.00,860.7
2020-02-18,14:50:00,DRY,4.47,12.43,22.3,780.00,851.9
2020-02-18,14:55:00,DRY,2.25,12.40,22.0,780.00,842.8
2020-02-18,15:00:00,DRY,2.40,12.13,19.7,780.00,832.1
2020-02-18,15:05:00,DRY,4.15,12.25,13.5,779.50,823.9
2020-02-18,15:10:00,DRY,2.57,12.50,16.7,779.67,811.4
2020-02-18,15:15:00,DRY,2.20,12.35,23.0,779.00,802.5
2020-02-18,15:20:00,DRY,3.20,12.13,22.7,779.00,788.7
2020-02-18,15:25:00,DRY,2.95,11.75,29.0,779.00,775.9
2020-02-18,15:30:00,DRY,2.17,11.87,21.3,779.00,764.9
2020-02-18,15:35:00,DRY,1.40,12.15,24.5,779.00,753.0
2020-02-18,15:40:00,DRY,3.00,12.20,27.3,779.00,739.8
2020-02-18,15:45:00,DRY,3.50,11.60,22.0,779.00,724.1
2020-02-18,15:50:00,DRY,1.83,11.63,21.3,779.00,712.9
2020-02-18,15:55:00,DRY,3.10,11.95,19.5,779.00,697.4
2020-02-18,16:00:00,DRY,1.77,11.70,23.7,779.00,683.5
2020-02-18,16:05:00,DRY,2.95,11.85,21.0,779.00,668.2
2020-02-18,16:10:00,DRY,1.57,11.80,21.3,779.00,652.8
2020-02-18,16:15:00,DRY,2.55,11.85,19.0,779.00,635.7
2020-02-18,16:20:00,DRY,2.53,11.87,22.7,779.00,619.0
2020-02-18,16:25:00,DRY,2.65,11.60,17.5,779.00,601.5
2020-02-18,16:30:00,DRY,2.33,11.70,18.3,779.00,586.6
2020-02-18,16:35:00,DRY,3.30,11.55,26.5,779.00,567.9
2020-02-18,16:40:00,DRY,2.23,11.17,24.7,779.00,548.5
2020-02-18,16:45:00,DRY,3.05,11.35,17.5,779.00,532.0
2020-02-18,16:50:00,DRY,3.57,11.40,17.0,779.00,512.6
2020-02-18,16:55:00,DRY,3.65,11.35,13.5,779.00,494.5
2020-02-18,17:00:00,DRY,2.03,11.27,22.3,779.00,473.7
2020-02-18,17:05:00,DRY,3.05,11.55,18.5,779.00,454.5
2020-02-18,17:10:00,DRY,1.33,11.37,18.0,779.00,434.0
2020-02-18,17:15:00,DRY,0.80,11.65,18.0,779.00,415.5
2020-02-18,17:20:00,DRY,3.70,11.30,18.0,779.00,394.5
2020-02-18,17:25:00,DRY,2.95,10.90,18.5,779.00,373.9
2020-02-18,17:30:00,DRY,3.40,10.93,17.3,779.00,352.0
2020-02-18,17:35:00,DRY,4.25,10.80,23.5,779.00,331.9
2020-02-18,17:40:00,DRY,3.07,10.77,17.7,779.00,311.4
2020-02-18,17:45:00,DRY,4.20,10.60,22.5,779.00,289.9
2020-02-18,17:50:00,DRY,2.10,10.57,19.3,779.00,268.3
2020-02-18,17:55:00,DRY,1.35,10.55,20.0,779.00,249.4
2020-02-18,18:00:00,DRY,2.77,10.50,20.7,779.00,227.8
2020-02-18,18:05:00,DRY,1.85,10.35,22.0,779.00,208.5
2020-02-18,18:10:00,DRY,2.43,10.50,18.0,779.00,188.8
2020-02-18,18:15:00,DRY,2.60,10.35,18.0,779.00,169.6
2020-02-18,18:20:00,DRY,2.07,10.40,18.7,779.00,151.1
2020-02-18,18:25:00,DRY,1.80,10.30,15.0,779.00,129.2
2020-02-18,18:30:00,DRY,1.70,10.20,15.7,779.00,103.1
2020-02-18,18:35:00,DRY,1.70,10.20,16.0,779.00,78.6
2020-02-18,18:40:00,DRY,2.03,10.07,15.0,779.00,59.1
2020-02-18,18:45:00,DRY,2.10,9.95,14.5,779.00,43.2
2020-02-18,18:50:00,DRY,3.67,9.90,15.0,779.00,27.2
2020-02-18,18:55:00,DRY,3.30,9.75,14.0,779.00,17.5
2020-02-18,19:00:00,DRY,2.40,9.57,13.3,779.00,12.5
2020-02-18,19:05:00,DRY,2.85,9.40,13.0,779.00,7.8
2020-02-18,19:10:00,DRY,4.23,9.40,12.3,779.00,4.9
2020-02-18,19:15:00,DRY,5.90,9.45,11.5,779.00,2.7
2020-02-18,19:20:00,DRY,3.83,9.30,11.7,779.00,1.7
2020-02-18,19:25:00,DRY,2.30,9.00,11.0,779.00,2.0
2020-02-18,19:30:00,DRY,2.53,8.87,11.3,779.00,1.1
2020-02-18,19:35:00,DRY,2.80,8.90,11.0,779.00,1.4
2020-02-18,19:40:00,DRY,2.97,8.97,11.0,779.00,0.9
2020-02-18,19:45:00,DRY,2.10,8.90,11.0,779.00,1.7
2020-02-18,19:50:00,DRY,2.57,8.93,11.0,779.00,1.6
2020-02-18,19:55:00,DRY,4.20,8.90,11.0,779.00,1.1
2020-02-18,20:00:00,DRY,2.43,8.87,11.3,779.00,1.4
2020-02-18,20:05:00,DRY,3.80,9.05,11.5,779.00,1.3
2020-02-18,20:10:00,DRY,4.03,8.90,12.0,779.00,1.3
2020-02-18,20:15:00,DRY,1.80,8.80,12.0,779.00,1.8
2020-02-18,20:20:00,DRY,1.37,8.93,12.0,779.00,1.6
2020-02-18,20:25:00,DRY,2.30,9.10,12.0,779.50,1.9
2020-02-18,20:30:00,DRY,2.43,9.10,12.7,779.67,1.3
2020-02-18,20:35:00,DRY,2.70,9.15,12.0,780.00,1.5
2020-02-18,20:40:00,DRY,2.53,9.10,12.0,779.67,1.6
2020-02-18,20:45:00,DRY,1.90,9.05,12.0,780.00,1.0
2020-02-18,20:50:00,DRY,2.70,8.97,12.0,780.00,1.2
2020-02-18,20:55:00,DRY,2.30,8.90,12.5,780.00,0.8
2020-02-18,21:00:00,DRY,2.07,8.90,12.3,780.00,2.7
2020-02-18,21:05:00,DRY,3.25,9.15,12.0,780.00,1.5
2020-02-18,21:10:00,DRY,3.80,8.93,12.0,780.00,1.2
2020-02-18,21:15:00,DRY,6.30,8.90,12.0,780.00,0.9
2020-02-18,21:20:00,DRY,4.47,8.83,12.0,780.00,1.5
2020-02-18,21:25:00,DRY,4.80,8.95,12.0,780.00,1.4
2020-02-18,21:30:00,DRY,4.43,9.13,12.0,780.00,1.1
2020-02-18,21:35:00,DRY,6.10,9.15,12.0,780.00,1.1
2020-02-18,21:40:00,DRY,5.67,9.23,11.0,780.00,1.1
2020-02-18,21:45:00,DRY,3.40,9.10,11.0,780.00,1.1
2020-02-18,21:50:00,DRY,4.30,9.00,11.0,780.00,1.3
2020-02-18,21:55:00,DRY,4.55,9.15,10.5,780.00,1.1
2020-02-18,22:00:00,DRY,5.37,9.30,11.0,780.00,1.2
2020-02-18,22:05:00,DRY,6.75,9.40,11.0,780.00,1.1
2020-02-18,22:10:00,DRY,3.63,9.17,11.0,780.00,1.3
2020-02-18,22:15:00,DRY,5.95,9.00,11.0,780.00,0.9
2020-02-18,22:20:00,DRY,6.43,9.13,11.0,780.00,1.3
2020-02-18,22:25:00,DRY,5.85,9.15,11.0,780.00,1.7
2020-02-18,22:30:00,DRY,4.13,9.07,11.7,780.00,1.5
2020-02-18,22:35:00,DRY,4.20,8.95,12.0,780.00,2.2
2020-02-18,22:40:00,DRY,5.60,9.13,11.7,780.00,1.1
2020-02-18,22:45:00,DRY,6.00,9.05,12.0,780.00,1.1
2020-02-18,22:50:00,DRY,5.97,9.30,12.0,780.00,1.1
2020-02-18,22:55:00,DRY,4.90,9.35,12.0,780.00,1.1
2020-02-18,23:00:00,DRY,6.80,9.30,12.0,780.00,1.0
2020-02-18,23:05:00,DRY,5.00,9.25,13.0,780.00,0.9
2020-02-18,23:10:00,DRY,6.47,9.30,13.3,780.00,1.1
2020-02-18,23:15:00,DRY,5.50,9.35,13.0,780.00,1.2
2020-02-18,23:20:00,DRY,6.57,9.37,13.0,780.00,1.1
2020-02-18,23:25:00,DRY,6.00,9.35,12.5,780.00,1.3
2020-02-18,23:30:00,DRY,6.33,9.30,12.7,780.00,1.1
2020-02-18,23:35:00,DRY,7.55,9.45,12.5,780.00,1.2
2020-02-18,23:40:00,DRY,6.13,9.43,13.0,780.00,1.2
2020-02-18,23:45:00,DRY,5.65,9.60,13.0,780.00,1.2
2020-02-18,23:50:00,DRY,5.73,9.70,13.0,780.00,1.2
2020-02-18,23:55:00,DRY,6.45,9.85,13.0,780.00,1.2
2020-02-19,00:00:00,DRY,4.67,9.73,12.3,780.00,1.8
2020-02-19,00:05:00,DRY,5.60,9.60,12.0,780.00,1.4
2020-02-19,00:10:00,DRY,5.97,9.93,11.7,780.00,1.1
2020-02-19,00:15:00,DRY,5.45,9.85,11.0,779.50,1.2
2020-02-19,00:20:00,DRY,6.00,9.90,11.0,779.67,1.1
2020-02-19,00:25:00,DRY,4.35,9.95,11.0,779.00,1.3
2020-02-19,00:30:00,DRY,4.90,9.87,12.0,779.00,1.4
2020-02-19,00:35:00,DRY,3.85,10.00,12.0,779.50,1.1
2020-02-19,00:40:00,DRY,4.83,9.87,12.0,779.00,1.2
2020-02-19,00:45:00,DRY,4.60,9.75,12.0,779.00,1.6
2020-02-19,00:50:00,DRY,3.37,9.43,12.0,779.00,1.2
2020-02-19,00:55:00,DRY,3.60,9.35,12.0,779.00,0.7
2020-02-19,01:00:00,DRY,2.43,9.57,12.0,779.00,1.2
2020-02-19,01:05:00,DRY,3.10,9.50,12.0,779.00,1.6
2020-02-19,01:10:00,DRY,3.00,9.40,12.0,779.00,0.9
2020-02-19,01:15:00,DRY,3.45,9.40,12.5,779.00,0.9
2020-02-19,01:20:00,DRY,4.37,9.43,12.3,779.00,1.0
2020-02-19,01:25:00,DRY,4.60,9.35,13.0,779.00,1.1
2020-02-19,01:30:00,DRY,3.70,9.43,13.0,779.00,1.1
2020-02-19,01:35:00,DRY,3.80,9.35,13.0,779.00,0.8
2020-02-19,01:40:00,DRY,3.93,9.47,13.0,779.00,1.3
2020-02-19,01:45:00,DRY,3.75,9.40,12.5,779.00,0.9
2020-02-19,01:50:00,DRY,4.07,9.53,11.0,779.00,1.0
2020-02-19,01:55:00,DRY,4.25,9.65,10.0,779.00,1.2
2020-02-19,02:00:00,DRY,3.33,9.63,11.0,779.00,1.5
2020-02-19,02:05:00,DRY,3.90,9.25,12.0,779.00,1.2
2020-02-19,02:10:00,DRY,3.60,9.13,11.7,779.00,1.0
2020-02-19,02:15:00,DRY,3.15,8.95,12.0,779.00,1.8
2020-02-19,02:20:00,DRY,4.00,9.53,9.3,778.67,1.0
2020-02-19,02:25:00,DRY,3.20,9.50,9.5,778.50,1.1
2020-02-19,02:30:00,DRY,4.90,9.70,6.7,778.00,0.9
2020-02-19,02:35:00,DRY,4.80,9.85,7.0,778.00,1.1
2020-02-19,02:40:00,DRY,4.13,9.87,7.0,778.00,1.1
2020-02-19,02:45:00,DRY,4.15,10.05,6.5,778.00,1.3
2020-02-19,02:50:00,DRY,4.07,10.00,6.3,778.00,1.0
2020-02-19,02:55:00,DRY,3.05,9.90,6.0,778.00,0.7
2020-02-19,03:00:00,DRY,2.67,9.93,7.0,778.00,1.4
2020-02-19,03:05:00,DRY,3.15,9.90,6.0,778.00,1.0
2020-02-19,03:10:00,DRY,3.07,10.13,6.0,778.00,1.1
2020-02-19,03:15:00,DRY,6.95,10.10,6.0,778.00,1.5
2020-02-19,03:20:00,DRY,4.40,10.23,6.0,778.00,1.1
2020-02-19,03:25:00,DRY,3.85,10.20,6.0,778.00,0.8
2020-02-19,03:30:00,DRY,4.13,10.30,6.0,778.00,1.1
2020-02-19,03:35:00,DRY,3.00,10.25,6.0,778.00,1.6
2020-02-19,03:40:00,DRY,5.57,10.27,6.0,778.00,1.5
2020-02-19,03:45:00,DRY,5.75,10.30,6.0,778.00,1.1
2020-02-19,03:50:00,DRY,2.93,10.37,6.0,778.00,1.3
2020-02-19,03:55:00,DRY,6.30,10.40,6.0,778.00,1.2
2020-02-19,04:00:00,DRY,4.47,10.40,6.0,778.00,1.3
2020-02-19,04:05:00,DRY,2.80,10.35,6.0,778.00,2.0
2020-02-19,04:10:00,DRY,3.47,10.20,6.0,778.00,0.9
2020-02-19,04:15:00,DRY,2.35,10.00,6.0,778.00,1.1
2020-02-19,04:20:00,DRY,2.83,10.07,5.7,778.00,1.6
2020-02-19,04:25:00,DRY,4.75,10.10,5.5,778.00,0.7
2020-02-19,04:30:00,DRY,4.17,10.07,6.0,778.00,1.3
2020-02-19,04:35:00,DRY,3.20,10.05,6.0,778.00,0.6
2020-02-19,04:40:00,DRY,4.27,10.13,6.0,778.00,1.1
2020-02-19,04:45:00,DRY,2.45,10.25,6.5,778.00,1.4
2020-02-19,04:50:00,DRY,3.87,10.37,8.3,778.00,0.8
2020-02-19,04:55:00,DRY,5.40,10.25,8.0,778.00,1.3
2020-02-19,05:00:00,DRY,4.97,10.50,8.7,778.00,1.3
2020-02-19,05:05:00,DRY,3.25,10.45,8.5,778.00,0.9
2020-02-19,05:10:00,DRY,4.33,10.50,8.7,778.00,1.1
2020-02-19,05:15:00,DRY,4.90,10.40,9.0,778.00,2.2
2020-02-19,05:20:00,DRY,5.63,10.37,9.3,778.00,1.0
2020-02-19,05:25:00,DRY,2.50,10.35,9.0,778.00,1.4
2020-02-19,05:30:00,DRY,4.90,10.43,9.3,778.00,1.2
2020-02-19,05:35:00,DRY,5.10,10.40,9.0,778.00,1.0
2020-02-19,05:40:00,DRY,3.10,10.23,10.7,778.00,1.3
2020-02-19,05:45:00,DRY,3.15,10.30,11.0,778.00,1.0
2020-02-19,05:50:00,DRY,4.03,10.23,12.0,778.00,1.1
2020-02-19,05:55:00,DRY,4.10,10.35,12.5,778.00,1.1
2020-02-19,06:00:00,DRY,4.00,10.27,11.0,778.00,1.0
2020-02-19,06:05:00,DRY,2.85,10.20,10.0,778.00,1.4
2020-02-19,06:10:00,DRY,2.40,10.03,11.3,778.00,1.8
2020-02-19,06:15:00,DRY,1.95,10.00,11.0,777.50,0.1
2020-02-19,06:20:00,DRY,2.47,10.07,11.3,777.33,1.5
2020-02-19,06:25:00,DRY,2.70,10.00,11.5,777.50,1.0
2020-02-19,06:30:00,DRY,3.03,10.00,10.3,778.00,1.7
2020-02-19,06:35:00,DRY,1.35,9.80,10.5,777.00,0.6
2020-02-19,06:40:00,DRY,2.57,9.83,12.0,778.00,1.3
2020-02-19,06:45:00,DRY,2.15,9.80,11.0,778.00,0.2
2020-02-19,06:50:00,DRY,3.77,9.93,11.3,778.00,0.8
2020-02-19,06:55:00,DRY,3.45,10.00,14.5,778.00,1.0
2020-02-19,07:00:00,DRY,3.60,10.03,12.7,778.00,0.8
2020-02-19,07:05:00,DRY,3.75,10.00,11.5,778.00,1.6
2020-02-19,07:10:00,DRY,3.57,10.10,13.0,778.00,1.0
2020-02-19,07:15:00,DRY,2.40,10.25,13.0,778.00,1.1
2020-02-19,07:20:00,DRY,2.83,10.03,14.3,778.00,1.5
2020-02-19,07:25:00,DRY,3.40,10.20,17.0,778.00,1.4
2020-02-19,07:30:00,,,,,,
2020-02-19,07:35:00,DRY,4.15,9.95,17.5,778.00,2.6
2020-02-19,07:40:00,DRY,3.33,9.97,16.7,778.00,5.5
2020-02-19,07:45:00,DRY,3.40,10.00,18.5,778.00,8.0
2020-02-19,07:50:00,DRY,2.37,9.80,19.0,778.00,11.5
2020-02-19,07:55:00,DRY,3.10,9.85,19.5,778.00,14.9
2020-02-19,08:00:00,DRY,2.80,9.67,18.7,778.00,18.0
2020-02-19,08:05:00,DRY,2.60,9.90,21.0,778.00,21.1
2020-02-19,08:10:00,DRY,3.50,10.00,19.7,778.00,23.2
2020-02-19,08:15:00,DRY,1.35,9.90,20.5,778.00,26.1
2020-02-19,08:20:00,DRY,2.20,10.03,21.3,778.00,27.8
2020-02-19,08:25:00,DRY,2.85,10.05,15.5,778.00,29.0
2020-02-19,08:30:00,DRY,2.63,10.03,16.0,778.00,58.7
2020-02-19,08:35:00,DRY,1.40,10.20,16.5,778.00,174.4
2020-02-19,08:40:00,DRY,3.13,10.40,14.3,778.00,192.9
2020-02-19,08:45:00,DRY,2.95,10.50,18.5,778.00,222.7
2020-02-19,08:50:00,DRY,2.27,10.43,14.3,778.00,235.7
2020-02-19,08:55:00,DRY,3.40,10.55,15.5,778.00,275.9
2020-02-19,09:00:00,DRY,1.93,10.67,12.7,778.00,298.3
2020-02-19,09:05:00,DRY,2.35,10.75,12.0,778.00,319.0
2020-02-19,09:10:00,DRY,3.37,10.77,12.0,778.00,340.6
2020-02-19,09:15:00,DRY,4.00,10.60,13.0,778.00,361.8
2020-02-19,09:20:00,DRY,1.83,10.80,11.0,778.00,381.4
2020-02-19,09:25:00,DRY,2.45,10.80,12.0,778.00,403.2
2020-02-19,09:30:00,DRY,1.83,11.00,11.7,778.00,423.9
2020-02-19,09:35:00,DRY,2.50,11.15,12.5,778.00,443.5
2020-02-19,09:40:00,DRY,2.57,10.87,11.7,778.00,463.7
2020-02-19,09:45:00,DRY,2.55,10.75,13.0,778.00,484.1
2020-02-19,09:50:00,DRY,3.97,10.73,12.0,778.00,502.8
2020-02-19,09:55:00,DRY,2.40,10.65,12.5,778.00,522.5
2020-02-19,10:00:00,DRY,2.30,10.47,12.7,778.00,541.1
2020-02-19,10:05:00,DRY,2.75,9.80,14.0,778.00,558.7
2020-02-19,10:10:00,DRY,4.60,9.63,15.0,778.00,578.2
2020-02-19,10:15:00,DRY,4.15,9.95,14.5,778.00,596.0
2020-02-19,10:20:00,DRY,3.57,9.77,14.0,778.00,613.1
2020-02-19,10:25:00,DRY,5.30,9.75,13.5,778.00,631.8
2020-02-19,10:30:00,DRY,4.13,9.93,13.0,778.00,644.9
2020-02-19,10:35:00,DRY,3.20,10.35,12.5,778.00,665.4
2020-02-19,10:40:00,DRY,4.67,10.57,12.3,778.00,682.0
2020-02-19,10:45:00,DRY,3.40,10.90,12.5,778.00,699.2
2020-02-19,10:50:00,DRY,4.10,10.90,12.3,778.00,715.0
2020-02-19,10:55:00,DRY,5.05,11.00,13.0,778.00,712.3
2020-02-19,11:00:00,DRY,2.87,11.33,13.0,778.00,744.5
2020-02-19,11:05:00,DRY,3.10,11.25,14.0,778.00,749.9
2020-02-19,11:10:00,DRY,2.10,11.53,15.7,778.00,780.8
2020-02-19,11:15:00,DRY,1.55,11.55,17.0,778.00,800.5
2020-02-19,11:20:00,DRY,2.20,11.63,16.3,778.00,733.8
2020-02-19,11:25:00,DRY,0.85,12.10,16.0,778.00,765.8
2020-02-19,11:30:00,DRY,1.07,11.97,14.0,778.00,823.4
2020-02-19,11:35:00,DRY,1.55,12.00,13.5,778.00,803.7
2020-02-19,11:40:00,DRY,1.80,11.70,15.7,778.00,850.6
2020-02-19,11:45:00,DRY,1.50,11.50,14.5,778.00,866.2
2020-02-19,11:50:00,DRY,2.50,11.57,13.7,778.00,850.5
2020-02-19,11:55:00,DRY,1.45,11.45,13.5,778.00,873.3
2020-02-19,12:00:00,DRY,1.80,11.60,15.7,778.00,871.5
2020-02-19,12:05:00,DRY,1.10,12.05,15.0,778.00,900.2
2020-02-19,12:10:00,DRY,1.50,11.77,16.3,778.00,783.5
2020-02-19,12:15:00,DRY,2.10,11.45,17.0,778.00,833.3
2020-02-19,12:20:00,DRY,1.03,11.30,18.3,778.00,913.3
2020-02-19,12:25:00,DRY,0.50,12.25,18.5,778.00,921.0
2020-02-19,12:30:00,DRY,1.73,11.83,16.7,778.00,922.9
2020-02-19,12:35:00,DRY,3.00,12.15,16.5,778.00,924.8
2020-02-19,12:40:00,DRY,2.07,11.70,17.0,778.00,896.6
2020-02-19,12:45:00,DRY,2.05,11.30,19.5,778.00,924.1
2020-02-19,12:50:00,DRY,2.83,11.37,17.3,778.00,900.8
2020-02-19,12:55:00,DRY,1.80,11.25,14.5,778.00,937.5
2020-02-19,13:00:00,DRY,3.00,11.77,14.7,778.00,895.5
2020-02-19,13:05:00,DRY,3.20,11.35,15.5,777.50,939.6
2020-02-19,13:10:00,DRY,2.97,11.13,15.3,777.33,937.0
2020-02-19,13:15:00,DRY,4.15,11.00,16.0,777.50,910.2
2020-02-19,13:20:00,DRY,2.03,11.10,14.3,777.00,921.2
2020-02-19,13:25:00,DRY,3.40,11.45,12.5,777.00,876.0
2020-02-19,13:30:00,DRY,2.40,11.20,11.0,777.00,930.5
2020-02-19,13:35:00,DRY,3.20,11.50,13.0,777.00,823.6
2020-02-19,13:40:00,DRY,3.73,11.63,13.7,777.00,936.1
2020-02-19,13:45:00,DRY,1.90,11.75,13.5,777.00,933.5
2020-02-19,13:50:00,DRY,2.40,12.33,12.0,777.00,929.9
2020-02-19,13:55:00,DRY,2.00,12.25,11.0,777.00,927.2
2020-02-19,14:00:00,DRY,3.07,12.27,12.0,777.00,922.6
2020-02-19,14:05:00,DRY,3.25,12.30,11.0,777.00,918.8
2020-02-19,14:10:00,DRY,4.07,12.13,10.0,777.00,914.3
2020-02-19,14:15:00,DRY,2.05,12.25,10.5,777.00,909.0
2020-02-19,14:20:00,DRY,4.17,11.80,9.7,777.00,902.7
2020-02-19,14:25:00,DRY,3.30,11.65,10.5,777.00,897.2
2020-02-19,14:30:00,DRY,2.77,12.20,11.0,777.00,889.8
2020-02-19,14:35:00,DRY,3.65,12.15,11.5,777.00,883.0
2020-02-19,14:40:00,DRY,3.77,12.33,12.0,776.33,877.2
2020-02-19,14:45:00,DRY,3.35,12.55,11.0,776.00,868.3
2020-02-19,14:50:00,DRY,4.30,12.10,10.7,776.00,860.9
2020-02-19,14:55:00,DRY,2.45,12.25,11.0,776.00,851.7
2020-02-19,15:00:00,DRY,3.03,12.03,11.0,776.00,836.8
2020-02-19,15:05:00,DRY,1.50,12.00,12.0,776.00,832.6
2020-02-19,15:10:00,DRY,2.47,12.00,12.0,776.00,821.8
2020-02-19,15:15:00,DRY,3.45,12.00,16.5,776.00,811.5
2020-02-19,15:20:00,DRY,2.40,11.67,12.0,776.00,793.9
2020-02-19,15:25:00,DRY,1.75,11.75,11.5,776.00,789.5
2020-02-19,15:30:00,DRY,2.90,12.00,14.7,776.00,775.8
2020-02-19,15:35:00,DRY,3.35,11.80,12.0,776.00,762.5
2020-02-19,15:40:00,DRY,2.20,11.77,13.7,776.00,749.8
2020-02-19,15:45:00,DRY,3.85,11.95,12.0,776.00,737.1
2020-02-19,15:50:00,DRY,3.23,11.60,12.3,776.00,720.5
2020-02-19,15:55:00,DRY,2.45,11.85,14.0,776.00,706.7
2020-02-19,16:00:00,DRY,2.37,12.03,13.0,776.00,692.1
2020-02-19,16:05:00,DRY,2.00,11.70,12.0,776.00,678.3
2020-02-19,16:10:00,DRY,2.17,11.83,12.3,776.00,661.6
2020-02-19,16:15:00,DRY,3.25,11.75,12.5,776.00,644.2
2020-02-19,16:20:00,DRY,3.23,11.57,13.3,776.00,627.6
2020-02-19,16:25:00,DRY,2.60,11.30,15.5,776.00,610.5
2020-02-19,16:30:00,DRY,2.63,11.37,14.0,776.00,592.8
2020-02-19,16:35:00,DRY,2.95,11.00,14.5,776.00,574.9
2020-02-19,16:40:00,DRY,3.80,10.87,15.0,776.00,556.5
2020-02-19,16:45:00,DRY,2.40,10.70,16.5,776.00,538.2